Regional Weather Roundup
Issued by NWS Kansas City/Pleasant Hill, MO

Home | Current Version | Previous Version | Text Only | Print | Product List | Glossary On
Versions: 1 2 3 4 5 6 7 8 9 10 11 12 13 14 15 16 17 18 19 20 21 22 23 24 25 26 27 28
000
ASUS43 KEAX 270310
RWREAX

WEATHER ROUNDUP FOR EASTERN KANSAS AND NORTHWEST MISSOURI
NATIONAL WEATHER SERVICE KANSAS CITY/PLEASANT HILL MO
1000 PM CDT WED JUL 26 2017

KSZ040-057-103>105-MOZ028-029-037-043-270400-
...KANSAS CITY METROPOLITAN AREA...

CITY           SKY/WX    TMP DP  RH WIND       PRES   REMARKS
K.C. INTL      TSTM      74  73  97 E8        29.98F
K.C. DOWNTOWN  TSTM      76  76 100 E15G22    29.93F
LEES SUMMIT    TSTM      78  77  96 NE6       29.97R
OLATHE - IXD   CLOUDY    77  76  96 NE6       29.97R
OLATHE - OJC   CLOUDY    76  76 100 NE5       29.96R
LAWRENCE       LGT RAIN  76  75  97 VRB3      29.95R

$$

MOZ001>008-011>017-020>025-030>033-038>040-044>046-053-054-270400-
...NORTHERN AND CENTRAL MISSOURI...

CITY           SKY/WX    TMP DP  RH WIND       PRES   REMARKS
ST. JOSEPH     CLOUDY    78  76  93 CALM      29.96R
MOSBY          TSTM      77  73  88 W5        30.00R
WARRENSBURG    CLOUDY    77  75  94 CALM      29.95R
WHITEMAN AFB   CLOUDY    78  78 100 CALM      29.96R
CLINTON        CLOUDY    81  77  89 NE7       29.97S
SEDALIA        CLOUDY    81  80  97 NW6       30.00R HX  91
WARSAW         NOT AVBL
CHILLICOTHE      N/A     78  78 100 CALM      29.99R
KIRKSVILLE     CLOUDY    77  73  87 CALM      29.98R

$$

MOZ041-047>049-056>058-063>065-088>090-097-270400-
...EASTERN AND SOUTHERN MISSOURI...

CITY           SKY/WX    TMP DP  RH WIND       PRES   REMARKS
ST. LOUIS INTL MOCLDY    87  72  60 S5        29.96F HX  93
SPIRIT OF STL  CLOUDY    85  74  69 S3        29.94F HX  92
COLUMBIA       CLOUDY    83  77  82 E3        29.96S HX  92
JEFFERSON CITY MOCLDY    84  77  79 CALM      29.94S HX  94
ROLLA          CLOUDY    83  72  69 S6        29.99F
OSAGE BEACH    CLOUDY    86  72  62 CALM      29.97S HX  92
SPRINGFIELD    PTCLDY    83  72  69 S8        30.00R
BRANSON          N/A     82  72  69 S6        30.03S
JOPLIN         MOCLDY    87  73  62 S12       29.98R HX  94
WEST PLAINS    CLOUDY    83  72  69 S7        30.04S

$$

IAZ060-094-KSZ022-034>040-054-083-096-NEZ052-066-093-270400-
...KANSAS...SOUTHEAST NEBRASKA AND IOWA...

CITY           SKY/WX    TMP DP  RH WIND       PRES   REMARKS
TOPEKA         CLOUDY    76  76 100 NE5       29.95S
MANHATTAN      CLOUDY    76  75  97 NE6       29.97R
EMPORIA        CLOUDY    78  75  90 NE7       29.93R
CHANUTE        MOCLDY    87  73  62 S10       29.94R HX  94
WICHITA        CLOUDY    86  72  62 S9        29.90R HX  92
OMAHA          MOCLDY    74  71  91 N3        29.99R
LINCOLN        MOCLDY    74  72  93 NE9       30.01R
FALLS CITY     CLOUDY    76  75  97 NE6       29.98R
LAMONI         CLOUDY    76  75  97 S3        29.99R
DES MOINES     CLOUDY    75  73  93 N5        29.97R

$$





USA.gov is the U.S. government's official web portal to all federal, state and local government web resources and services.